Tracking 28779 objects as of 15-Apr-2024
HD Live streaming from Space Station
objects crossing your sky now

FENGYUN 1C DEB

Track FENGYUN 1C DEB now!
10-day predictions


NORAD ID: 30347
Int'l Code: 1999-025ABJ
Perigee: 818.5 km
Apogee: 1,037.2 km
Inclination: 98.4 °
Period: 103.4 minutes
Semi major axis: 7298 km
RCS: 0.028 m2 (small)
Launch date: May 10, 1999
Source: People's Republic of China (PRC)
Launch site: Taiyaun Space Center, China (TSC)

Note: This is SATELLITE DEBRIS
Your satellite tracking list
Your tracking list is empty




NASA's NSSDC Master Catalog

Two Line Element Set (TLE):
1 30347U 99025ABJ 24106.58371756  .00000352  00000-0  27881-3 0  9996
2 30347  98.4372 340.3584 0149833 277.6300 143.9613 13.92255259875248
Source of the keplerian elements: AFSPC